Weather in Vorobyevo

Russia / Novosibirsk Oblast     56°07′28″N   76°31′51″E
temp.,
°C
wind,
m/s
gust,
m/s
humid.,
%
clouds,
%
prec.,
mm/h
press.,
hPa
HPBL,
m
2 march, tue
tue201:00−16ne239697 0.2 101457
04:00−18ne129882 0.1 101420
07:00−21nne1110085 0.1 101520
10:00−18ese009789 0.1 101632
13:00−16s119187 0.1 1015221
16:00−14ssw2289100 0.0 1015365
19:00−16ssw2296100 0.1 101520
22:00−19ssw239965 0.0 101520
3 march, wed
wed301:00−18ssw239773 0.1 101657
04:00−20ssw339982 0.0 101536
07:00−20ssw339987 0.1 101650
10:00−20s369881 0.0 1015129
13:00−15s589472 0.0 1015296
16:00−12s61093100 0.0 1014430
19:00−14s71392100 0.1 1014472
22:00−13ssw71393100 0.1 1013520
4 march, thu
thu401:00−11ssw71393100 0.8 1012549
04:00−8ssw71493100 0.6 1010591
07:00−7s81492100 0.8 1010529
10:00−5ssw71395100 0.4 1008638
13:00−1ssw71295100 1.0 1008883
16:00−1ssw81393100 0.5 1006908
19:00−2ssw81495100 1.0 1006769
22:00−2ssw81595100 0.5 1004744
5 march, fri
fri501:00−2ssw81491100 0.9 1003782
04:00−2ssw71395100 0.4 1002651
07:00−2sw71394100 0.6 1003636
10:00−7wsw5129196 0.0 1006369
13:00−8wsw6129074 0.1 1009442
16:00−7sw7118818 0.0 1011578
19:00−8ssw8168659 0.0 1011684
22:00−6sw91690100 0.6 10101000
6 march, sat
sat601:00−6sw101793100 1.1 1009883
04:00−5sw101790100 0.6 1008887
07:00−4sw91690100 0.8 1008781
10:00−3wsw91590100 0.1 1009846
13:00−2sw91489100 0.1 1010785
16:00−2sw81390100 0.0 1011786
19:00−3sw8128898 0.1 1013666
22:00−4sw61092100 0.0 1014535